Saginaw, MI

11:20 PM EST on February 25, 2018 (GMT -0500)
MBS International

Weather History for KMBS - May, 2014

Change the Weather History Date:

Saturday, May 10, 2014

  Actual Average Record
Temperature  
Mean Temperature 60 °F 55 °F  
Max Temperature 70 °F 66 °F 81 °F (2004)
Min Temperature 50 °F 45 °F 37 °F (2008)
Degree Days  
Heating Degree Days 5    
Month to date heating degree days 118  
Since 1 July heating degree days 7478  
Cooling Degree Days 0    
Month to date cooling degree days 3  
Year to date cooling degree days 6  
Growing Degree Days 10 (Base 50)    
Moisture  
Dew Point 38 °F    
Average Humidity 50    
Maximum Humidity 77    
Minimum Humidity 23    
Precipitation  
Precipitation 0.00 in 0.11 in 1.77 in (2006)
Month to date precipitation 0.85 1.08  
Year to date precipitation 9.21 9.35  
Snow  
Snow 0.00 in - - ()
Month to date snowfall 0.0  
Since 1 July snowfall 60.3  
Snow Depth 0.00 in    
Sea Level Pressure  
Sea Level Pressure 29.88 in    
Wind  
Wind Speed 14 mph (WSW)    
Max Wind Speed 24 mph    
Max Gust Speed 32 mph    
Visibility 10 miles    
Events      
T = Trace of Precipitation, MM = Missing Value Source: NWS Daily Summary

Daily Weather History Graph

Daily Weather History Graph

Search for Another Location

Airport or City:

Trip Planner

Search our weather history database for the weather conditions in past years. The results will help you decide how hot, cold, wet, or windy it might be!

Date:

Astronomy

May. 10, 2014 Rise Set
Actual Time 6:17 AM EDT 8:48 PM EDT
Civil Twilight 5:44 AM EDT 9:21 PM EDT
Nautical Twilight 5:04 AM EDT 10:02 PM EDT
Astronomical Twilight 4:18 AM EDT 10:48 PM EDT
Moon 4:36 PM EDT (5/10) 3:58 AM EDT (5/10)
Length of Visible Light 15h 36m
Length of Day
14h 31m
Waxing Gibbous, 82% of the Moon is Illuminated
May 10
Waxing Gibbous
May 14
Full
May 21
Last Quarter
May 28
New
Jun 5
First Quarter

Hourly Weather History & Observations

Time (EDT) Temp. Dew Point Humidity Pressure Visibility Wind Dir Wind Speed Gust Speed Precip Events Conditions
12:53 AM 57.0 °F 46.0 °F 67% 29.78 in 10.0 mi WSW 12.7 mph - N/A   Clear
1:53 AM 55.0 °F 45.0 °F 69% 29.79 in 10.0 mi WSW 11.5 mph - N/A   Clear
2:53 AM 54.0 °F 45.0 °F 72% 29.80 in 10.0 mi SW 11.5 mph - N/A   Clear
3:53 AM 54.0 °F 45.0 °F 72% 29.82 in 10.0 mi SW 13.8 mph - N/A   Clear
4:53 AM 52.0 °F 44.1 °F 74% 29.82 in 10.0 mi SW 12.7 mph - N/A   Clear
5:53 AM 51.1 °F 43.0 °F 74% 29.84 in 10.0 mi WSW 9.2 mph - N/A   Clear
6:53 AM 51.8 °F 42.8 °F 71% 29.86 in 10.0 mi WSW 12.7 mph - N/A   Clear
7:53 AM 53.1 °F 42.1 °F 66% 29.87 in 10.0 mi WSW 13.8 mph - N/A   Clear
8:53 AM 57.0 °F 42.1 °F 57% 29.89 in 10.0 mi WSW 10.4 mph - N/A   Clear
9:53 AM 59.0 °F 39.9 °F 49% 29.90 in 10.0 mi WSW 15.0 mph - N/A   Clear
10:53 AM 61.0 °F 37.9 °F 42% 29.89 in 10.0 mi WSW 18.4 mph 24.2 mph N/A   Clear
11:53 AM 64.0 °F 39.0 °F 40% 29.89 in 10.0 mi WSW 19.6 mph 26.5 mph N/A   Clear
12:53 PM 64.9 °F 37.9 °F 37% 29.89 in 10.0 mi WSW 19.6 mph 27.6 mph N/A   Clear
1:53 PM 66.9 °F 39.0 °F 36% 29.88 in 10.0 mi WSW 20.7 mph 32.2 mph N/A   Clear
2:53 PM 69.1 °F 37.9 °F 32% 29.87 in 10.0 mi WSW 18.4 mph 26.5 mph N/A   Clear
3:53 PM 69.1 °F 32.0 °F 25% 29.87 in 10.0 mi WSW 20.7 mph 29.9 mph N/A   Clear
4:53 PM 70.0 °F 33.1 °F 26% 29.88 in 10.0 mi West 17.3 mph 21.9 mph N/A   Clear
5:53 PM 70.0 °F 30.9 °F 24% 29.89 in 10.0 mi WNW 17.3 mph 24.2 mph N/A   Clear
6:53 PM 68.0 °F 32.0 °F 26% 29.90 in 10.0 mi NW 17.3 mph - N/A   Clear
7:53 PM 66.0 °F 32.0 °F 28% 29.92 in 10.0 mi West 15.0 mph - N/A   Clear
8:53 PM 59.0 °F 33.1 °F 38% 29.94 in 10.0 mi West 8.1 mph - N/A   Clear
9:53 PM 59.0 °F 33.1 °F 38% 29.96 in 10.0 mi West 5.8 mph - N/A   Clear
10:53 PM 57.2 °F 32.0 °F 38% 29.97 in 10.0 mi WSW 4.6 mph - N/A   Clear
11:53 PM 55.9 °F 33.1 °F 42% 29.97 in 10.0 mi West 6.9 mph - N/A   Clear